Location: Bosdarros
(43.2167°N, 0.3667°W)
Time: 16:25:02
(UTC+00:00)

NOSS 3-1 (A) - Pass Details

Date: 22 April 2021
Orbit: 733 x 1479 km, 63.4° (Epoch: 01 May)

Event Time Altitude Azimuth Distance (km) Brightness Sun altitude
Rises 22:34:04 0° 323° (NW) 3,968 7.8 -30.9°
Reaches altitude 10° 22:36:35 10° 323° (NW) 3,104 7.0 -31.1°
Maximum altitude 22:44:15 89° 237° (WSW) 1,332 4.0 -31.6°
Enters shadow 22:45:03 76° 149° (SSE) 1,377 4.0 -31.7°
